User: anonymous   Login
Location: Ferma
(41.9500°N, 44.5167°E)
Time: 17:57:49
(UTC+00:00)
Language:

Cosmos 1932 - Orbit

View from above orbital plane
View from above orbital plane
View from above satellite
View from above satellite

Ground track
Ground track

The orbit data is extracted from the following two-line orbital elements,

1 18957U 88019A   22020.93034332 -.00000059  00000-0  27283-4 0  9990
2 18957  65.0456 301.8256 0033156  40.6243 319.7280 13.79693468707268
Epoch (UTC): 20 January 2022 22:19:41
Eccentricity: 0.0033156
inclination: 65.0456°
perigee height: 940 km
apogee height: 989 km
right ascension of ascending node: 301.8256°
argument of perigee: 40.6243°
revolutions per day: 13.79693468
mean anomaly at epoch: 319.7280°
orbit number at epoch: 70726

The dashed part of the orbit path shows where the satellite is in the earth's shadow,  

DLR